Bettles, AK

1:28 PM AKST on November 11, 2019 (GMT -0900)
Bettles

Weather History for PABT - October, 2019

Change the Weather History Date:

Sunday, October 13, 2019

  Actual Average Record
Temperature  
Mean Temperature 17 °F -  
Max Temperature 24 °F 27 °F 53 °F (1969)
Min Temperature 10 °F 15 °F -10 °F (1988)
Degree Days  
Heating Degree Days 48    
Moisture  
Dew Point 11 °F    
Average Humidity 82    
Maximum Humidity 92    
Minimum Humidity 61    
Precipitation  
Precipitation 0.00 in - - ()
Snow  
Snow 0.00 in - - ()
Snow Depth 3.00 in    
Sea Level Pressure  
Sea Level Pressure 30.22 in    
Wind  
Wind Speed 4 mph (North)    
Max Wind Speed 7 mph    
Max Gust Speed -    
Visibility 9 miles    
Events Fog , Snow    
Averages and records for this station are not official NWS values.
T = Trace of Precipitation, MM = Missing Value Source: NWS Daily Summary

Daily Weather History Graph

Daily Weather History Graph

Search for Another Location

Airport or City:

Astronomy

Oct. 13, 2019 Rise Set
Actual Time 8:58 AM AKDT 6:44 PM AKDT
Civil Twilight 8:04 AM AKDT 7:38 PM AKDT
Nautical Twilight 7:03 AM AKDT 8:39 PM AKDT
Astronomical Twilight 5:59 AM AKDT 9:42 PM AKDT
Moon 7:29 PM AKDT (10/13) 8:12 AM AKDT (10/13)
Length of Visible Light 11h 33m
Length of Day
9h 45m
Full, 100% of the Moon is Illuminated
Oct 13
Full
Oct 13
Full
Oct 21
Last Quarter
Oct 27
New
Nov 4
First Quarter

Hourly Weather History & Observations

Time (AKDT) Temp. Windchill Dew Point Humidity Pressure Visibility Wind Dir Wind Speed Gust Speed Precip Events Conditions
12:20 AM 18.0 °F 12.7 °F 15.1 °F 88% 30.15 in 1.0 mi NNW 3.5 mph - N/A Snow Light Snow
12:53 AM 19.0 °F 13.9 °F 16.0 °F 88% 30.20 in 3.0 mi North 3.5 mph - N/A Snow Light Snow
1:53 AM 17.1 °F - 14.0 °F 88% 30.19 in 10.0 mi Calm Calm - N/A Snow Light Snow
2:53 AM 15.1 °F - 10.9 °F 84% 30.20 in 10.0 mi Calm Calm - N/A   Partly Cloudy
3:53 AM 14.0 °F 5.1 °F 10.9 °F 88% 30.20 in 10.0 mi NW 5.8 mph - N/A   Partly Cloudy
4:53 AM 12.0 °F 5.9 °F 9.0 °F 88% 30.21 in 10.0 mi NW 3.5 mph - N/A   Partly Cloudy
5:53 AM 10.9 °F - 7.0 °F 84% 30.22 in 10.0 mi Calm Calm - N/A   Partly Cloudy
6:53 AM 10.0 °F 1.8 °F 6.1 °F 84% 30.23 in 10.0 mi North 4.6 mph - N/A   Partly Cloudy
7:34 AM 10.0 °F 1.8 °F 7.0 °F 87% 30.17 in 10.0 mi NNW 4.6 mph - N/A   Scattered Clouds
7:53 AM 10.9 °F 1.4 °F 8.1 °F 88% 30.23 in 10.0 mi North 5.8 mph - N/A Fog Patches of Fog
8:53 AM 10.0 °F 1.8 °F 8.1 °F 92% 30.24 in 6.0 mi NNW 4.6 mph - N/A Fog Mostly Cloudy
9:53 AM 10.0 °F 3.6 °F 6.1 °F 84% 30.25 in 9.0 mi North 3.5 mph - N/A Fog Mostly Cloudy
10:36 AM 12.0 °F 5.9 °F 9.0 °F 88% 30.19 in 6.0 mi NNW 3.5 mph - N/A   Mostly Cloudy
10:53 AM 12.0 °F - 9.0 °F 88% 30.25 in 5.0 mi Calm Calm - N/A   Mostly Cloudy
11:32 AM 12.9 °F 6.9 °F 10.0 °F 88% 30.20 in 10.0 mi NW 3.5 mph - N/A Fog Mostly Cloudy
11:53 AM 15.1 °F 9.4 °F 10.9 °F 84% 30.26 in 10.0 mi NNW 3.5 mph - N/A Fog Mostly Cloudy
12:07 PM 15.1 °F 9.4 °F 10.9 °F 84% 30.20 in 10.0 mi NW 3.5 mph - N/A   Mostly Cloudy
12:25 PM 16.0 °F 8.8 °F 10.9 °F 81% 30.20 in 10.0 mi NNW 4.6 mph - N/A   Scattered Clouds
1:53 PM 19.9 °F 13.4 °F 14.0 °F 78% 30.25 in 10.0 mi NE 4.6 mph - N/A   Partly Cloudy
2:53 PM 21.9 °F 15.7 °F 15.1 °F 75% 30.25 in 10.0 mi NE 4.6 mph - N/A   Partly Cloudy
3:53 PM 23.0 °F 17.0 °F 15.1 °F 72% 30.24 in 10.0 mi NNE 4.6 mph - N/A   Clear
4:53 PM 23.0 °F 14.7 °F 15.1 °F 72% 30.22 in 10.0 mi NE 6.9 mph - N/A   Clear
5:53 PM 21.9 °F 17.2 °F 14.0 °F 72% 30.22 in 10.0 mi NNE 3.5 mph - N/A   Clear
6:53 PM 18.0 °F 12.7 °F 12.0 °F 78% 30.22 in 10.0 mi North 3.5 mph - N/A   Clear
7:53 PM 15.1 °F 7.7 °F 10.0 °F 80% 30.22 in 10.0 mi North 4.6 mph - N/A   Clear
8:53 PM 12.9 °F 5.2 °F 9.0 °F 84% 30.22 in 10.0 mi NNW 4.6 mph - N/A   Clear
9:53 PM 12.0 °F 2.7 °F 8.1 °F 84% 30.23 in 10.0 mi NNW 5.8 mph - N/A   Clear
10:53 PM 12.9 °F 3.8 °F 9.0 °F 84% 30.22 in 10.0 mi NNW 5.8 mph - N/A   Clear